Flight Track Log - Related Links

Times and Time Zones

All times are in EDT time to prevent confusion due to time zone crossing. See the N401PL flight status page for this flight to view local times or setup timezone preferences in your user account.

Time Position Orientation Groundspeed Altitude Reporting Facility
EDT Latitude Longitude Course Direction KTS MPH feet Rate Location/Type
04:48PM 38.5833 -92.0567 92° East 132 152 3,100  Level Kansas City Center
04:49PM 38.5747 -92.0103 103° East 138 159 4,200 968 Climbing Kansas City Center
04:50PM 38.5517 -91.9575 119° Southeast 140 161 5,100 774 Climbing Kansas City Center
04:51PM 38.5328 -91.9100 117° Southeast 145 167 5,800 677 Climbing Kansas City Center
04:52PM 38.5833 -91.8013 90° East  Level FlightAware Approximate
04:52PM 38.5411 -91.8542 79° East 154 177 6,500  Level Kansas City Center
04:53PM 38.5823 -91.7432 92° East  Level FlightAware Approximate
04:53PM 38.5439 -91.8003 86° East 153 176 7,000  Level Kansas City Center
04:54PM 38.5478 -91.7406 85° East 158 182 7,000  Level Kansas City Center
04:55PM 38.5525 -91.6756 85° East 170 196 7,000  Level Kansas City Center
04:56PM 38.5561 -91.6083 86° East 180 207 7,000  Level Kansas City Center
04:57PM 38.5600 -91.5256 87° East 191 220 7,000  Level Kansas City Center
04:58PM 38.5644 -91.4586 85° East 189 217 7,000  Level Kansas City Center
04:59PM 38.5689 -91.3917 85° East 189 217 7,000  Level Kansas City Center
05:00PM 38.5728 -91.3256 86° East 193 222 7,000  Level Kansas City Center
05:01PM 38.5769 -91.2589 85° East 191 220 7,000 -194 Level Kansas City Center
05:02PM 38.5817 -91.1883 85° East 196 226 6,600 -484 Descending Kansas City Center
05:03PM 38.5800 -91.0994 91° East 206 237 6,000 -387 Descending Kansas City Center
05:04PM 38.5786 -91.0275 91° East 206 237 5,800 -339 Descending Kansas City Center
05:05PM 38.5786 -90.9547 90° East 205 236 5,300 -387 Descending Kansas City Center
05:06PM 38.5781 -90.8825 91° East 205 236 5,000 -145 Descending Kansas City Center
05:07PM 38.5775 -90.8150 91° East 196 226 5,000 -97 Level Kansas City Center
05:08PM 38.5772 -90.7464 90° East 194 223 4,800 -387 Descending Kansas City Center
05:09PM 38.5758 -90.6597 91° East 202 232 4,200 -387 Descending Kansas City Center
05:10PM 38.5750 -90.5878 91° East 205 236 4,000 -339 Descending Kansas City Center
05:11PM 38.5747 -90.5181 90° East 201 231 3,500 -484 Descending Kansas City Center
05:12PM 38.5739 -90.4500 91° East 198 228 3,000 -435 Descending Kansas City Center
05:14PM 38.5742 -90.3672 90° East 197 227 2,600 -290 Descending Kansas City Center
05:15PM 38.5861 -90.3028 77° East 192 221 2,400 -387 Descending Kansas City Center
05:16PM 38.6000 -90.2411 74° East 187 215 1,800 -677 Descending Kansas City Center
05:17PM 38.5881 -90.1928 108° East 160 184 1,000 -629 Descending Kansas City Center
05:18PM 38.5703 -90.1564 122° Southeast 137 158 500 -484 Descending Kansas City Center
05:20PM 38.5667 -90.1500 90° East  Level FlightAware Approximate
05:27PM 38.5704 -90.1551 90° East  Level Estimated
05:28PM 38.5667 -90.1500 90° East  Level FlightAware Approximate

Login

Don't have an account? Register now (free) for customized features, flight alerts, and more!